Location: Lake Almanor
(40.2485°N, 121.1442°W)
Time: 02:18:18
(UTC-08:00)

STARLINK-1093 - Pass Details

Date: 30 January 2020
Orbit: 349 x 351 km, 53.0° (Epoch: 18 February)

Event Time Altitude Azimuth Distance (km) Brightness Sun altitude
Rises 17:42:19 0° 319° (NW) 2,168 7.0 -4.7°
Reaches altitude 10° 17:44:56 10° 344° (NNW) 1,323 5.6 -5.2°
Maximum altitude 17:46:46 15° 23° (NNE) 1,065 4.7 -5.5°
Drops below altitude 10° 17:48:36 10° 62° (ENE) 1,321 4.9 -5.9°
Enters shadow 17:49:10 - 70° (ENE) 1,478 5.1 -6.0°
